ARG1591 SAOC-SABE

Flight info

Callsign ARG1591
Flight time 0h 47m
Altitude 35000
Route PADOG UW10 SNT SNT9R
Aircraft B38M/M-SDE1FGHILORVWXY/HB1

Departure

Time 2026-05-04 21:47
Airport Area De Material Airport (SAOC)

Arrival

Time 2026-05-04 22:34
Airport Aeroparque Jorge Newbery (SABE)
Time Latitude Longitude Altitude Speed Heading
2026-05-04 21:07 -33.09578 -64.27718 1379 ft 0 kts 269°
2026-05-04 21:44 -33.09582 -64.27721 1379 ft 1 kts 233°
2026-05-04 21:44 -33.09590 -64.27720 1376 ft 2 kts 177°
2026-05-04 21:45 -33.09623 -64.27692 1379 ft 11 kts 144°
2026-05-04 21:45 -33.09710 -64.27639 1376 ft 17 kts 178°
2026-05-04 21:45 -33.09811 -64.27642 1375 ft 12 kts 198°
2026-05-04 21:45 -33.09900 -64.27705 1373 ft 15 kts 208°
2026-05-04 21:46 -33.09910 -64.27743 1370 ft 1 kts 319°
2026-05-04 21:46 -33.09903 -64.27740 1371 ft 1 kts 17°
2026-05-04 21:46 -33.09885 -64.27718 1371 ft 8 kts 43°
2026-05-04 21:46 -33.09667 -64.27462 1377 ft 88 kts 43°
2026-05-04 21:47 -33.09044 -64.26730 1440 ft 155 kts 45°
2026-05-04 21:47 -33.08216 -64.25677 1811 ft 197 kts 55°
2026-05-04 21:47 -33.07874 -64.23858 2224 ft 258 kts 96°
2026-05-04 21:47 -33.08528 -64.21646 2667 ft 296 kts 114°
2026-05-04 21:48 -33.09485 -64.19446 3071 ft 305 kts 115°
2026-05-04 21:48 -33.10338 -64.17110 3542 ft 308 kts 108°
2026-05-04 21:48 -33.10999 -64.14637 4060 ft 317 kts 104°
2026-05-04 21:48 -33.11652 -64.12102 4571 ft 323 kts 107°
2026-05-04 21:49 -33.12387 -64.09563 5052 ft 324 kts 108°
2026-05-04 21:49 -33.13148 -64.07012 5544 ft 327 kts 108°
2026-05-04 21:49 -33.13889 -64.04436 6033 ft 328 kts 107°
2026-05-04 21:49 -33.14619 -64.01842 6508 ft 331 kts 107°
2026-05-04 21:50 -33.15363 -63.99229 6974 ft 336 kts 107°
2026-05-04 21:50 -33.16116 -63.96608 7440 ft 340 kts 107°
2026-05-04 21:50 -33.16887 -63.93910 7920 ft 345 kts 107°
2026-05-04 21:50 -33.17663 -63.91184 8405 ft 350 kts 108°
2026-05-04 21:51 -33.18451 -63.88416 8890 ft 355 kts 108°
2026-05-04 21:51 -33.19253 -63.85596 9378 ft 360 kts 108°
2026-05-04 21:51 -33.20067 -63.82736 9879 ft 366 kts 108°
2026-05-04 21:51 -33.20887 -63.79847 10336 ft 368 kts 108°
2026-05-04 21:52 -33.21710 -63.76946 10813 ft 370 kts 108°
2026-05-04 21:52 -33.22534 -63.74016 11281 ft 372 kts 107°
2026-05-04 21:52 -33.23251 -63.71024 11763 ft 377 kts 107°
2026-05-04 21:52 -33.24022 -63.68056 12243 ft 379 kts 108°
2026-05-04 21:53 -33.24821 -63.64991 12749 ft 383 kts 107°
2026-05-04 21:53 -33.25573 -63.61963 13247 ft 387 kts 107°
2026-05-04 21:53 -33.26330 -63.58874 13741 ft 389 kts 107°
2026-05-04 21:53 -33.27109 -63.55756 14200 ft 392 kts 108°
2026-05-04 21:54 -33.27899 -63.52623 14658 ft 396 kts 108°
2026-05-04 21:54 -33.28688 -63.49464 15150 ft 399 kts 108°
2026-05-04 21:54 -33.29482 -63.46262 15631 ft 402 kts 108°
2026-05-04 21:54 -33.30280 -63.43047 16110 ft 406 kts 109°
2026-05-04 21:55 -33.31089 -63.39799 16603 ft 408 kts 109°
2026-05-04 21:55 -33.31899 -63.36535 17107 ft 411 kts 109°
2026-05-04 21:55 -33.32705 -63.33283 17615 ft 414 kts 109°
2026-05-04 21:55 -33.33527 -63.29958 18134 ft 418 kts 109°
2026-05-04 21:56 -33.34353 -63.26618 18590 ft 421 kts 109°
2026-05-04 21:56 -33.35187 -63.23239 19054 ft 424 kts 109°
2026-05-04 21:56 -33.36024 -63.19845 19503 ft 427 kts 109°
2026-05-04 21:56 -33.36868 -63.16415 19987 ft 431 kts 109°
2026-05-04 21:57 -33.37716 -63.12969 20460 ft 434 kts 108°
2026-05-04 21:57 -33.38571 -63.09486 20961 ft 437 kts 108°
2026-05-04 21:57 -33.39428 -63.05990 21446 ft 440 kts 108°
2026-05-04 21:57 -33.40295 -63.02451 21953 ft 444 kts 108°
2026-05-04 21:58 -33.41165 -62.98892 22467 ft 448 kts 108°
2026-05-04 21:58 -33.42045 -62.95290 22990 ft 452 kts 108°
2026-05-04 21:58 -33.42929 -62.91664 23507 ft 456 kts 107°
2026-05-04 21:58 -33.43820 -62.88008 23953 ft 460 kts 107°
2026-05-04 21:59 -33.44718 -62.84312 24405 ft 463 kts 108°
2026-05-04 21:59 -33.45619 -62.80602 24860 ft 466 kts 108°
2026-05-04 21:59 -33.46526 -62.76869 25327 ft 469 kts 108°
2026-05-04 21:59 -33.47444 -62.73102 25806 ft 471 kts 108°
2026-05-04 22:00 -33.48357 -62.69370 26270 ft 473 kts 108°
2026-05-04 22:00 -33.49277 -62.65584 26773 ft 475 kts 108°
2026-05-04 22:00 -33.50196 -62.61786 27267 ft 476 kts 108°
2026-05-04 22:00 -33.51121 -62.57966 27773 ft 477 kts 108°
2026-05-04 22:01 -33.52045 -62.54153 28294 ft 477 kts 108°
2026-05-04 22:01 -33.52971 -62.50323 28830 ft 477 kts 108°
2026-05-04 22:01 -33.53895 -62.46492 29370 ft 477 kts 108°
2026-05-04 22:01 -33.54813 -62.42678 29904 ft 476 kts 108°
2026-05-04 22:02 -33.55732 -62.38858 30367 ft 475 kts 108°
2026-05-04 22:02 -33.56644 -62.35061 30836 ft 474 kts 108°
2026-05-04 22:02 -33.57554 -62.31265 31312 ft 472 kts 108°
2026-05-04 22:02 -33.58459 -62.27485 31799 ft 469 kts 109°
2026-05-04 22:03 -33.59346 -62.23774 32279 ft 467 kts 109°
2026-05-04 22:03 -33.60236 -62.20050 32770 ft 463 kts 109°
2026-05-04 22:03 -33.61121 -62.16338 33274 ft 460 kts 109°
2026-05-04 22:03 -33.61998 -62.12652 33785 ft 457 kts 109°
2026-05-04 22:04 -33.62867 -62.08995 34244 ft 453 kts 109°
2026-05-04 22:04 -33.63726 -62.05380 34677 ft 450 kts 110°
2026-05-04 22:04 -33.64588 -62.01751 34847 ft 455 kts 110°
2026-05-04 22:05 -33.66355 -61.94292 34864 ft 474 kts 109°
2026-05-04 22:05 -33.68182 -61.86535 34872 ft 492 kts 109°
2026-05-04 22:06 -33.70062 -61.78542 34867 ft 509 kts 109°
2026-05-04 22:06 -33.72006 -61.70242 34867 ft 519 kts 109°
2026-05-04 22:07 -33.73960 -61.61867 34871 ft 520 kts 109°
2026-05-04 22:07 -33.75910 -61.53495 34866 ft 521 kts 109°
2026-05-04 22:08 -33.77849 -61.45102 34872 ft 521 kts 109°
2026-05-04 22:08 -33.78806 -61.40950 34882 ft 521 kts 109°
2026-05-04 22:09 -33.81569 -61.28934 34875 ft 518 kts 109°
2026-05-04 22:09 -33.83478 -61.20560 34866 ft 518 kts 109°
2026-05-04 22:10 -33.85370 -61.12247 34875 ft 518 kts 109°
2026-05-04 22:10 -33.87263 -61.03887 34870 ft 517 kts 109°
2026-05-04 22:11 -33.89151 -60.95535 34704 ft 517 kts 109°
2026-05-04 22:11 -33.90089 -60.91372 34405 ft 516 kts 109°
2026-05-04 22:11 -33.91028 -60.87189 33924 ft 516 kts 108°
2026-05-04 22:11 -33.91964 -60.83020 33328 ft 517 kts 108°
2026-05-04 22:12 -33.92888 -60.78897 32669 ft 514 kts 108°
2026-05-04 22:12 -33.93813 -60.74758 31960 ft 511 kts 108°
2026-05-04 22:12 -33.94734 -60.70634 31266 ft 507 kts 108°
2026-05-04 22:12 -33.95647 -60.66540 30594 ft 503 kts 108°
2026-05-04 22:13 -33.96549 -60.62490 29932 ft 499 kts 108°
2026-05-04 22:13 -33.97445 -60.58456 29207 ft 496 kts 108°
2026-05-04 22:13 -33.98331 -60.54459 28463 ft 492 kts 108°
2026-05-04 22:13 -33.99209 -60.50496 27743 ft 488 kts 108°
2026-05-04 22:14 -34.00080 -60.46560 27031 ft 485 kts 108°
2026-05-04 22:14 -34.00944 -60.42641 26329 ft 481 kts 108°
2026-05-04 22:14 -34.01801 -60.38752 25659 ft 477 kts 108°
2026-05-04 22:14 -34.02639 -60.34944 25007 ft 474 kts 108°
2026-05-04 22:15 -34.03479 -60.31122 24367 ft 470 kts 108°
2026-05-04 22:15 -34.04314 -60.27315 23743 ft 466 kts 108°
2026-05-04 22:15 -34.05138 -60.23553 23059 ft 463 kts 108°
2026-05-04 22:15 -34.05954 -60.19818 22333 ft 459 kts 108°
2026-05-04 22:16 -34.06765 -60.16102 21620 ft 455 kts 108°
2026-05-04 22:16 -34.07568 -60.12417 20945 ft 451 kts 108°
2026-05-04 22:16 -34.08361 -60.08775 20276 ft 447 kts 108°
2026-05-04 22:16 -34.09145 -60.05166 19614 ft 443 kts 108°
2026-05-04 22:17 -34.09924 -60.01576 18973 ft 439 kts 108°
2026-05-04 22:17 -34.10694 -59.98020 18334 ft 435 kts 108°
2026-05-04 22:17 -34.11453 -59.94509 17626 ft 431 kts 108°
2026-05-04 22:17 -34.12207 -59.91020 16926 ft 427 kts 108°
2026-05-04 22:18 -34.12950 -59.87575 16226 ft 423 kts 108°
2026-05-04 22:18 -34.13687 -59.84153 15534 ft 418 kts 108°
2026-05-04 22:18 -34.14415 -59.80765 14879 ft 414 kts 108°
2026-05-04 22:18 -34.15132 -59.77424 14228 ft 410 kts 108°
2026-05-04 22:19 -34.15834 -59.74150 13586 ft 405 kts 108°
2026-05-04 22:19 -34.16544 -59.70834 12867 ft 401 kts 107°
2026-05-04 22:19 -34.17230 -59.67622 12553 ft 386 kts 107°
2026-05-04 22:19 -34.17883 -59.64559 12266 ft 381 kts 108°
2026-05-04 22:20 -34.18545 -59.61463 11968 ft 379 kts 108°
2026-05-04 22:20 -34.19265 -59.58415 11669 ft 374 kts 112°
2026-05-04 22:20 -34.20136 -59.55500 11368 ft 371 kts 114°
2026-05-04 22:20 -34.21006 -59.52569 11086 ft 369 kts 112°
2026-05-04 22:21 -34.21789 -59.49616 10798 ft 367 kts 110°
2026-05-04 22:21 -34.22553 -59.46678 10516 ft 365 kts 111°
2026-05-04 22:21 -34.23345 -59.43778 10232 ft 363 kts 112°
2026-05-04 22:21 -34.24146 -59.40892 9956 ft 361 kts 111°
2026-05-04 22:22 -34.24926 -59.38024 9670 ft 359 kts 111°
2026-05-04 22:22 -34.25697 -59.35159 9359 ft 357 kts 110°
2026-05-04 22:22 -34.26456 -59.32347 9058 ft 355 kts 110°
2026-05-04 22:22 -34.27227 -59.29511 8752 ft 354 kts 110°
2026-05-04 22:23 -34.27993 -59.26677 8455 ft 353 kts 109°
2026-05-04 22:23 -34.28751 -59.23869 8171 ft 350 kts 109°
2026-05-04 22:23 -34.29495 -59.21105 7873 ft 340 kts 109°
2026-05-04 22:23 -34.30215 -59.18432 7579 ft 330 kts 108°
2026-05-04 22:24 -34.30919 -59.15819 7267 ft 322 kts 108°
2026-05-04 22:24 -34.31603 -59.13275 6974 ft 315 kts 108°
2026-05-04 22:24 -34.32278 -59.10764 6713 ft 311 kts 108°
2026-05-04 22:24 -34.32944 -59.08282 6477 ft 310 kts 107°
2026-05-04 22:25 -34.33608 -59.05807 6229 ft 308 kts 107°
2026-05-04 22:25 -34.34265 -59.03353 5985 ft 306 kts 107°
2026-05-04 22:25 -34.34920 -59.00908 5725 ft 306 kts 107°
2026-05-04 22:25 -34.35575 -58.98458 5477 ft 305 kts 107°
2026-05-04 22:26 -34.36225 -58.96024 5233 ft 303 kts 107°
2026-05-04 22:26 -34.36872 -58.93602 4988 ft 302 kts 107°
2026-05-04 22:26 -34.37509 -58.91212 4751 ft 301 kts 107°
2026-05-04 22:26 -34.38151 -58.88803 4498 ft 300 kts 107°
2026-05-04 22:27 -34.38789 -58.86411 4321 ft 299 kts 107°
2026-05-04 22:27 -34.39427 -58.84012 4147 ft 298 kts 107°
2026-05-04 22:27 -34.40060 -58.81630 3965 ft 293 kts 107°
2026-05-04 22:27 -34.40674 -58.79317 3789 ft 284 kts 107°
2026-05-04 22:28 -34.41271 -58.77070 3605 ft 276 kts 107°
2026-05-04 22:28 -34.41852 -58.74878 3422 ft 269 kts 107°
2026-05-04 22:28 -34.42418 -58.72743 3240 ft 264 kts 107°
2026-05-04 22:28 -34.42974 -58.70644 3051 ft 258 kts 107°
2026-05-04 22:29 -34.43507 -58.68629 3020 ft 237 kts 107°
2026-05-04 22:29 -34.44001 -58.66764 3009 ft 231 kts 106°
2026-05-04 22:29 -34.44482 -58.64936 3014 ft 228 kts 106°
2026-05-04 22:29 -34.44964 -58.63111 3011 ft 226 kts 106°
2026-05-04 22:30 -34.45444 -58.61289 3011 ft 227 kts 106°
2026-05-04 22:30 -34.45947 -58.59495 2880 ft 227 kts 112°
2026-05-04 22:30 -34.46748 -58.57939 2588 ft 205 kts 124°
2026-05-04 22:30 -34.47526 -58.56588 2303 ft 185 kts 124°
2026-05-04 22:31 -34.48230 -58.55344 2009 ft 177 kts 123°
2026-05-04 22:31 -34.48911 -58.54128 1738 ft 172 kts 123°
2026-05-04 22:31 -34.49358 -58.53326 1705 ft 169 kts 123°
2026-05-04 22:31 -34.50244 -58.51741 1688 ft 172 kts 123°
2026-05-04 22:32 -34.50698 -58.50928 1627 ft 172 kts 123°
2026-05-04 22:32 -34.51366 -58.49736 1496 ft 170 kts 122°
2026-05-04 22:32 -34.52018 -58.48559 1307 ft 170 kts 122°
2026-05-04 22:32 -34.52677 -58.47360 975 ft 167 kts 123°
2026-05-04 22:33 -34.53339 -58.46209 792 ft 168 kts 123°
2026-05-04 22:33 -34.53989 -58.45053 575 ft 163 kts 123°
2026-05-04 22:33 -34.54630 -58.43903 371 ft 165 kts 123°
2026-05-04 22:33 -34.55253 -58.42787 113 ft 161 kts 123°
2026-05-04 22:34 -34.55814 -58.41771 26 ft 114 kts 127°
2026-05-04 22:34 -34.56152 -58.41176 28 ft 63 kts 124°
2026-05-04 22:34 -34.56345 -58.40820 27 ft 40 kts 127°
2026-05-04 22:34 -34.56403 -58.40648 26 ft 7 kts 45°
2026-05-04 22:35 -34.56389 -58.40646 26 ft 1 kts 338°
2026-05-04 22:35 -34.56360 -58.40663 26 ft 7 kts 334°
2026-05-04 22:35 -34.56309 -58.40712 26 ft 11 kts 319°
2026-05-04 22:35 -34.56274 -58.40750 26 ft 1 kts 318°
2026-05-04 22:36 -34.56273 -58.40750 26 ft 0 kts 318°
2026-05-04 22:36 -34.56267 -58.40757 26 ft 3 kts 318°
2026-05-04 22:36 -34.56254 -58.40771 26 ft 1 kts 318°
2026-05-04 22:37 -34.56252 -58.40773 26 ft 0 kts 318°
2026-05-04 22:38 -34.56244 -58.40783 26 ft 4 kts 318°
2026-05-04 22:38 -34.56217 -58.40812 26 ft 0 kts 318°
2026-05-04 22:38 -34.56212 -58.40817 26 ft 1 kts 318°
2026-05-04 22:38 -34.56195 -58.40837 26 ft 5 kts 313°
2026-05-04 22:39 -34.56171 -58.40887 26 ft 9 kts 298°
2026-05-04 22:39 -34.56134 -58.40960 26 ft 11 kts 303°
2026-05-04 22:39 -34.56088 -58.41038 26 ft 10 kts 307°
2026-05-04 22:39 -34.56040 -58.41116 26 ft 13 kts 307°
2026-05-04 22:40 -34.55984 -58.41206 26 ft 15 kts 307°
2026-05-04 22:40 -34.55914 -58.41296 26 ft 14 kts 337°
2026-05-04 22:40 -34.55874 -58.41297 26 ft 0 kts 32°
2026-05-04 22:40 -34.55873 -58.41296 26 ft 1 kts 32°
2026-05-04 22:41 -34.55854 -58.41287 26 ft 5 kts 12°
2026-05-04 22:41 -34.55819 -58.41268 26 ft 6 kts 36°
2026-05-04 22:41 -34.55802 -58.41253 26 ft 0 kts 37°